Time,TemperatureF,DewpointF,PressureIn,WindDirection,WindDirectionDegrees,WindSpeedMPH,WindSpeedGustMPH,Humidity,HourlyPrecipIn,Conditions,Clouds,dailyrainin,SolarRadiationWatts/m^2,SoftwareType,DateUTC
2013-04-29 00:11:00,41.0,30.0,-100.00,SW,214,7.0,13.0,64,0.00,,,0.00,0.000000,,2013-04-29 07:11:00,
2013-04-29 00:21:00,41.0,30.0,-100.00,SW,214,7.0,13.0,64,0.00,,,0.00,0.000000,,2013-04-29 07:21:00,
2013-04-29 00:31:00,41.0,30.0,-100.00,SW,214,7.0,13.0,64,0.00,,,0.00,0.000000,,2013-04-29 07:31:00,
2013-04-29 00:41:00,41.0,30.0,-100.00,SW,214,7.0,13.0,64,0.00,,,0.00,0.000000,,2013-04-29 07:41:00,
2013-04-29 01:11:00,41.0,29.0,-100.00,WNW,296,9.0,15.0,63,0.00,,,0.00,0.000000,,2013-04-29 08:11:00,
2013-04-29 01:21:00,41.0,29.0,-100.00,WNW,296,9.0,15.0,63,0.00,,,0.00,0.000000,,2013-04-29 08:21:00,
2013-04-29 01:31:00,41.0,29.0,-100.00,WNW,296,9.0,15.0,63,0.00,,,0.00,0.000000,,2013-04-29 08:31:00,
2013-04-29 01:41:00,41.0,29.0,-100.00,WNW,296,9.0,15.0,63,0.00,,,0.00,0.000000,,2013-04-29 08:41:00,
2013-04-29 02:12:00,40.0,31.0,-100.00,West,265,7.0,14.0,71,0.00,,,0.00,0.000000,,2013-04-29 09:12:00,
2013-04-29 02:21:00,40.0,31.0,-100.00,West,265,7.0,14.0,71,0.00,,,0.00,0.000000,,2013-04-29 09:21:00,
2013-04-29 02:32:00,40.0,31.0,-100.00,West,265,7.0,14.0,71,0.00,,,0.00,0.000000,,2013-04-29 09:32:00,
2013-04-29 02:42:00,40.0,31.0,-100.00,West,265,7.0,14.0,71,0.00,,,0.00,0.000000,,2013-04-29 09:42:00,
2013-04-29 03:12:00,37.0,31.0,-100.00,WNW,293,10.0,12.0,78,0.00,,,0.00,0.000000,,2013-04-29 10:12:00,
2013-04-29 03:23:00,37.0,31.0,-100.00,WNW,293,10.0,12.0,78,0.00,,,0.00,0.000000,,2013-04-29 10:23:00,
2013-04-29 03:32:00,37.0,31.0,-100.00,WNW,293,10.0,12.0,78,0.00,,,0.00,0.000000,,2013-04-29 10:32:00,
2013-04-29 03:42:00,37.0,31.0,-100.00,WNW,293,10.0,12.0,78,0.00,,,0.00,0.000000,,2013-04-29 10:42:00,
2013-04-29 04:12:00,37.0,30.0,-100.00,WNW,284,4.0,14.0,76,0.00,,,0.00,0.000000,,2013-04-29 11:12:00,
2013-04-29 04:21:00,37.0,30.0,-100.00,WNW,284,4.0,14.0,76,0.00,,,0.00,0.000000,,2013-04-29 11:21:00,
2013-04-29 04:32:00,37.0,30.0,-100.00,WNW,284,4.0,14.0,76,0.00,,,0.00,0.000000,,2013-04-29 11:32:00,
2013-04-29 04:41:00,37.0,30.0,-100.00,WNW,284,4.0,14.0,76,0.00,,,0.00,0.000000,,2013-04-29 11:41:00,
2013-04-29 05:12:00,40.0,34.0,-100.00,WNW,287,15.0,23.0,78,0.00,,,0.00,0.000000,,2013-04-29 12:12:00,
2013-04-29 05:21:00,40.0,34.0,-100.00,WNW,287,15.0,23.0,78,0.00,,,0.00,0.000000,,2013-04-29 12:21:00,
2013-04-29 05:31:00,40.0,34.0,-100.00,WNW,287,15.0,23.0,78,0.00,,,0.00,0.000000,,2013-04-29 12:31:00,
2013-04-29 05:41:00,40.0,34.0,-100.00,WNW,287,15.0,23.0,78,0.00,,,0.00,0.000000,,2013-04-29 12:41:00,
2013-04-29 06:11:00,41.0,32.0,-100.00,WNW,288,25.0,33.0,71,0.00,,,0.00,0.000000,,2013-04-29 13:11:00,
2013-04-29 06:21:00,41.0,32.0,-100.00,WNW,288,25.0,33.0,71,0.00,,,0.00,0.000000,,2013-04-29 13:21:00,
2013-04-29 06:31:00,41.0,32.0,-100.00,WNW,288,25.0,33.0,71,0.00,,,0.00,0.000000,,2013-04-29 13:31:00,
2013-04-29 06:42:00,41.0,32.0,-100.00,WNW,288,25.0,33.0,71,0.00,,,0.00,0.000000,,2013-04-29 13:42:00,
2013-04-29 07:11:00,41.0,26.0,-100.00,WNW,294,28.0,39.0,54,0.00,,,0.00,4.000000,,2013-04-29 14:11:00,
2013-04-29 07:21:00,41.0,26.0,-100.00,WNW,294,28.0,39.0,54,0.00,,,0.00,4.000000,,2013-04-29 14:21:00,
2013-04-29 07:32:00,41.0,26.0,-100.00,WNW,294,28.0,39.0,54,0.00,,,0.00,4.000000,,2013-04-29 14:32:00,
2013-04-29 07:42:00,41.0,26.0,-100.00,WNW,294,28.0,39.0,54,0.00,,,0.00,4.000000,,2013-04-29 14:42:00,
2013-04-29 08:12:00,43.0,23.0,-100.00,WNW,295,24.0,39.0,45,0.00,,,0.00,138.000000,,2013-04-29 15:12:00,
2013-04-29 08:21:00,43.0,23.0,-100.00,WNW,295,24.0,39.0,45,0.00,,,0.00,138.000000,,2013-04-29 15:21:00,
2013-04-29 08:33:00,43.0,23.0,-100.00,WNW,295,24.0,39.0,45,0.00,,,0.00,138.000000,,2013-04-29 15:33:00,
2013-04-29 08:42:00,43.0,23.0,-100.00,WNW,295,24.0,39.0,45,0.00,,,0.00,138.000000,,2013-04-29 15:42:00,
2013-04-29 09:12:00,43.0,19.0,-100.00,WNW,298,26.0,35.0,37,0.00,,,0.00,334.000000,,2013-04-29 16:12:00,
2013-04-29 09:23:00,43.0,19.0,-100.00,WNW,298,26.0,35.0,37,0.00,,,0.00,334.000000,,2013-04-29 16:23:00,
2013-04-29 09:32:00,43.0,19.0,-100.00,WNW,298,26.0,35.0,37,0.00,,,0.00,334.000000,,2013-04-29 16:32:00,
2013-04-29 09:42:00,43.0,19.0,-100.00,WNW,298,26.0,35.0,37,0.00,,,0.00,334.000000,,2013-04-29 16:42:00,
2013-04-29 10:12:00,43.0,17.0,-100.00,WNW,294,32.0,44.0,34,0.00,,,0.00,522.000000,,2013-04-29 17:12:00,
2013-04-29 10:22:00,43.0,17.0,-100.00,WNW,294,32.0,44.0,34,0.00,,,0.00,522.000000,,2013-04-29 17:22:00,
2013-04-29 10:32:00,43.0,17.0,-100.00,WNW,294,32.0,44.0,34,0.00,,,0.00,522.000000,,2013-04-29 17:32:00,
2013-04-29 10:42:00,43.0,17.0,-100.00,WNW,294,32.0,44.0,34,0.00,,,0.00,522.000000,,2013-04-29 17:42:00,
2013-04-29 11:13:00,46.0,18.0,-100.00,WNW,296,26.0,41.0,32,0.00,,,0.00,682.000000,,2013-04-29 18:13:00,
2013-04-29 11:22:00,46.0,18.0,-100.00,WNW,296,26.0,41.0,32,0.00,,,0.00,682.000000,,2013-04-29 18:22:00,
2013-04-29 11:31:00,46.0,18.0,-100.00,WNW,296,26.0,41.0,32,0.00,,,0.00,682.000000,,2013-04-29 18:31:00,
2013-04-29 11:41:00,46.0,18.0,-100.00,WNW,296,26.0,41.0,32,0.00,,,0.00,682.000000,,2013-04-29 18:41:00,
2013-04-29 12:11:00,46.0,13.0,-100.00,WNW,283,29.0,41.0,26,0.00,,,0.00,801.000000,,2013-04-29 19:11:00,
2013-04-29 12:21:00,46.0,13.0,-100.00,WNW,283,29.0,41.0,26,0.00,,,0.00,801.000000,,2013-04-29 19:21:00,
2013-04-29 12:31:00,46.0,13.0,-100.00,WNW,283,29.0,41.0,26,0.00,,,0.00,801.000000,,2013-04-29 19:31:00,
2013-04-29 12:41:00,46.0,13.0,-100.00,WNW,283,29.0,41.0,26,0.00,,,0.00,801.000000,,2013-04-29 19:41:00,
2013-04-29 13:11:00,49.0,16.0,-100.00,WNW,295,29.0,41.0,26,0.00,,,0.00,867.000000,,2013-04-29 20:11:00,
2013-04-29 13:21:00,49.0,16.0,-100.00,WNW,295,29.0,41.0,26,0.00,,,0.00,867.000000,,2013-04-29 20:21:00,
2013-04-29 13:32:00,49.0,16.0,-100.00,WNW,295,29.0,41.0,26,0.00,,,0.00,867.000000,,2013-04-29 20:32:00,
2013-04-29 13:42:00,49.0,16.0,-100.00,WNW,295,29.0,41.0,26,0.00,,,0.00,867.000000,,2013-04-29 20:42:00,
2013-04-29 14:11:00,47.0,16.0,-100.00,WNW,294,30.0,43.0,28,0.00,,,0.00,875.000000,,2013-04-29 21:11:00,
2013-04-29 14:21:00,47.0,16.0,-100.00,WNW,294,30.0,43.0,28,0.00,,,0.00,875.000000,,2013-04-29 21:21:00,
2013-04-29 14:33:00,47.0,16.0,-100.00,WNW,294,30.0,43.0,28,0.00,,,0.00,875.000000,,2013-04-29 21:33:00,
2013-04-29 14:42:00,47.0,16.0,-100.00,WNW,294,30.0,43.0,28,0.00,,,0.00,875.000000,,2013-04-29 21:42:00,
2013-04-29 15:13:00,48.0,16.0,-100.00,WNW,292,29.0,44.0,28,0.00,,,0.00,831.000000,,2013-04-29 22:13:00,
2013-04-29 15:23:00,48.0,16.0,-100.00,WNW,292,29.0,44.0,28,0.00,,,0.00,831.000000,,2013-04-29 22:23:00,
2013-04-29 15:32:00,48.0,16.0,-100.00,WNW,292,29.0,44.0,28,0.00,,,0.00,831.000000,,2013-04-29 22:32:00,
2013-04-29 15:42:00,48.0,16.0,-100.00,WNW,292,29.0,44.0,28,0.00,,,0.00,831.000000,,2013-04-29 22:42:00,
2013-04-29 16:11:00,48.0,16.0,-100.00,WNW,301,34.0,43.0,27,0.00,,,0.00,732.000000,,2013-04-29 23:11:00,
2013-04-29 16:22:00,48.0,16.0,-100.00,WNW,301,34.0,43.0,27,0.00,,,0.00,732.000000,,2013-04-29 23:22:00,
2013-04-29 16:32:00,48.0,16.0,-100.00,WNW,301,34.0,43.0,27,0.00,,,0.00,732.000000,,2013-04-29 23:32:00,
2013-04-29 16:41:00,48.0,16.0,-100.00,WNW,301,34.0,43.0,27,0.00,,,0.00,732.000000,,2013-04-29 23:41:00,
2013-04-29 17:11:00,47.0,13.0,-100.00,WNW,301,33.0,47.0,25,0.00,,,0.00,590.000000,,2013-04-30 00:11:00,
2013-04-29 17:21:00,47.0,13.0,-100.00,WNW,301,33.0,47.0,25,0.00,,,0.00,590.000000,,2013-04-30 00:21:00,
2013-04-29 17:32:00,47.0,13.0,-100.00,WNW,301,33.0,47.0,25,0.00,,,0.00,590.000000,,2013-04-30 00:32:00,
2013-04-29 17:41:00,47.0,13.0,-100.00,WNW,301,33.0,47.0,25,0.00,,,0.00,590.000000,,2013-04-30 00:41:00,
2013-04-29 18:11:00,44.0,14.0,-100.00,WNW,297,31.0,44.0,29,0.00,,,0.00,415.000000,,2013-04-30 01:11:00,
2013-04-29 18:21:00,44.0,14.0,-100.00,WNW,297,31.0,44.0,29,0.00,,,0.00,415.000000,,2013-04-30 01:21:00,
2013-04-29 18:32:00,44.0,14.0,-100.00,WNW,297,31.0,44.0,29,0.00,,,0.00,415.000000,,2013-04-30 01:32:00,
2013-04-29 18:41:00,44.0,14.0,-100.00,WNW,297,31.0,44.0,29,0.00,,,0.00,415.000000,,2013-04-30 01:41:00,